Cushing, OK

8:09 PM CST on February 06, 2016 (GMT -0600)
Cushing Municipal

Weather History for KCUH - November, 2012

Change the Weather History Date:

Monday, November 12, 2012

  Actual Average Record
Temperature  
Mean Temperature 38 °F -  
Max Temperature 51 °F 58 °F 82 °F (2005)
Min Temperature 24 °F 36 °F 18 °F (1976)
Degree Days  
Heating Degree Days 28    
Moisture  
Dew Point 29 °F    
Average Humidity 79    
Maximum Humidity 100    
Minimum Humidity 44    
Precipitation  
Precipitation 0.00 in - - ()
Sea Level Pressure  
Sea Level Pressure 30.44 in    
Wind  
Wind Speed 2 mph (West)    
Max Wind Speed 10 mph    
Max Gust Speed -    
Visibility 10 miles    
Events      
Averages and records for this station are not official NWS values.
T = Trace of Precipitation, MM = Missing Value Source: NWS Daily Summary

Daily Weather History Graph

Daily Weather History Graph

Search for Another Location

Airport or City:

Trip Planner

Search our weather history database for the weather conditions in past years. The results will help you decide how hot, cold, wet, or windy it might be!

Date:

Astronomy

Nov. 12, 2012 Rise Set
Actual Time 7:00 AM CST 5:21 PM CST
Civil Twilight 6:33 AM CST 5:48 PM CST
Nautical Twilight 6:03 AM CST 6:19 PM CST
Astronomical Twilight 5:32 AM CST 6:49 PM CST
Moon 5:29 AM CST (11/12) 4:26 PM CST (11/12)
Length of Visible Light 11h 14m
Length of Day
10h 20m
Waning Crescent, 2% of the Moon is Illuminated
Nov 12
Waning Crescent
Nov 13
New
Nov 20
First Quarter
Nov 28
Full
Dec 6
Last Quarter

Hourly Weather History & Observations

Time (CST) Temp. Windchill Dew Point Humidity Pressure Visibility Wind Dir Wind Speed Gust Speed Precip Events Conditions
12:15 AM 30.2 °F - 28.4 °F 93% 30.32 in 10.0 mi Calm Calm - N/A   Clear
12:55 AM 30.2 °F - 28.4 °F 93% 30.32 in 10.0 mi Calm Calm - N/A   Clear
1:15 AM 30.2 °F - 28.4 °F 93% 30.33 in 10.0 mi Calm Calm - N/A   Clear
1:35 AM 30.2 °F - 28.4 °F 93% 30.34 in 10.0 mi Calm Calm - N/A   Clear
1:55 AM 30.2 °F - 26.6 °F 86% 30.35 in 10.0 mi Calm Calm - N/A   Clear
2:15 AM 28.4 °F - 26.6 °F 93% 30.35 in 10.0 mi Calm Calm - N/A   Clear
2:35 AM 28.4 °F - 26.6 °F 93% 30.36 in 10.0 mi Calm Calm - N/A   Clear
2:55 AM 28.4 °F - 26.6 °F 93% 30.37 in 10.0 mi Calm Calm - N/A   Clear
3:15 AM 28.4 °F - 26.6 °F 93% 30.38 in 10.0 mi Calm Calm - N/A   Clear
3:35 AM 26.6 °F - 26.6 °F 100% 30.38 in 10.0 mi Calm Calm - N/A   Clear
3:55 AM 26.6 °F - 26.6 °F 100% 30.39 in 10.0 mi Calm Calm - N/A   Clear
4:15 AM 26.6 °F - 26.6 °F 100% 30.39 in 10.0 mi Calm Calm - N/A   Clear
4:35 AM 26.6 °F - 26.6 °F 100% 30.39 in 10.0 mi Calm Calm - N/A   Clear
4:55 AM 26.6 °F - 26.6 °F 100% 30.40 in 10.0 mi Calm Calm - N/A   Clear
5:15 AM 26.6 °F - 26.6 °F 100% 30.40 in 10.0 mi Calm Calm - N/A   Clear
5:35 AM 26.6 °F - 26.6 °F 100% 30.42 in 10.0 mi Calm Calm - N/A   Clear
5:55 AM 24.8 °F - 24.8 °F 100% 30.42 in 10.0 mi Calm Calm - N/A   Clear
6:15 AM 26.6 °F - 26.6 °F 100% 30.43 in 10.0 mi Calm Calm - N/A   Clear
6:55 AM 26.6 °F - 26.6 °F 100% 30.43 in 10.0 mi Calm Calm - N/A   Unknown
7:15 AM 26.6 °F - 26.6 °F 100% 30.44 in 10.0 mi Calm Calm - N/A   Clear
7:35 AM 24.8 °F - 24.8 °F 100% 30.45 in 10.0 mi Calm Calm - N/A   Clear
7:55 AM 28.4 °F - 28.4 °F 100% 30.45 in 10.0 mi Calm Calm - N/A   Clear
8:15 AM 30.2 °F - 30.2 °F 100% 30.46 in 10.0 mi Calm Calm - N/A   Clear
8:35 AM 32.0 °F - 32.0 °F 100% 30.46 in 10.0 mi Calm Calm - N/A   Clear
8:55 AM 33.8 °F 29.6 °F 32.0 °F 93% 30.48 in 10.0 mi West 4.6 mph - N/A   Clear
9:15 AM 33.8 °F 27.7 °F 32.0 °F 93% 30.49 in 10.0 mi West 6.9 mph - N/A   Clear
9:35 AM 35.6 °F 32.8 °F 32.0 °F 87% 30.49 in 10.0 mi West 3.5 mph - N/A   Clear
9:55 AM 37.4 °F 34.9 °F 32.0 °F 81% 30.49 in 10.0 mi WSW 3.5 mph - N/A   Clear
10:15 AM 39.2 °F 35.0 °F 30.2 °F 70% 30.49 in 10.0 mi WSW 5.8 mph - N/A   Clear
10:35 AM 41.0 °F 36.4 °F 30.2 °F 65% 30.50 in 10.0 mi West 6.9 mph - N/A   Clear
10:55 AM 42.8 °F 39.3 °F 30.2 °F 61% 30.50 in 10.0 mi West 5.8 mph - N/A   Clear
11:15 AM 44.6 °F 40.7 °F 30.2 °F 57% 30.50 in 10.0 mi WSW 6.9 mph - N/A   Clear
11:35 AM 44.6 °F 40.2 °F 30.2 °F 57% 30.49 in 10.0 mi WSW 8.1 mph - N/A   Clear
11:55 AM 46.4 °F 45.2 °F 30.2 °F 53% 30.48 in 10.0 mi SSW 3.5 mph - N/A   Clear
12:15 PM 48.2 °F - 30.2 °F 50% 30.48 in 10.0 mi SW 5.8 mph - N/A   Clear
12:35 PM 50.0 °F - 30.2 °F 47% 30.47 in 10.0 mi WSW 4.6 mph - N/A   Clear
12:55 PM 50.0 °F - 32.0 °F 50% 30.46 in 10.0 mi West 5.8 mph - N/A   Clear
1:15 PM 51.8 °F - 30.2 °F 44% 30.46 in 10.0 mi WNW 4.6 mph - N/A   Clear
1:35 PM 51.8 °F - 30.2 °F 44% 30.46 in 10.0 mi West 10.4 mph - N/A   Clear
1:55 PM 51.8 °F - 30.2 °F 44% 30.45 in 10.0 mi West 9.2 mph - N/A   Clear
2:15 PM 51.8 °F - 32.0 °F 47% 30.45 in 10.0 mi WNW 5.8 mph - N/A   Clear
2:35 PM 51.8 °F - 30.2 °F 44% 30.44 in 10.0 mi WSW 8.1 mph - N/A   Clear
2:55 PM 51.8 °F - 32.0 °F 47% 30.43 in 10.0 mi West 9.2 mph - N/A   Clear
3:15 PM 51.8 °F - 32.0 °F 47% 30.43 in 10.0 mi WSW 4.6 mph - N/A   Clear
3:35 PM 51.8 °F - 32.0 °F 47% 30.44 in 10.0 mi West 9.2 mph - N/A   Clear
3:55 PM 51.8 °F - 32.0 °F 47% 30.43 in 10.0 mi West 6.9 mph - N/A   Clear
4:15 PM 51.8 °F - 32.0 °F 47% 30.44 in 10.0 mi West 3.5 mph - N/A   Clear
4:35 PM 51.8 °F - 30.2 °F 44% 30.44 in 10.0 mi WSW 5.8 mph - N/A   Clear
4:55 PM 50.0 °F - 30.2 °F 47% 30.44 in 10.0 mi West 3.5 mph - N/A   Clear
5:15 PM 46.4 °F - 30.2 °F 53% 30.44 in 10.0 mi Calm Calm - N/A   Clear
5:35 PM 44.6 °F - 28.4 °F 53% 30.44 in 10.0 mi Calm Calm - N/A   Clear
5:55 PM 41.0 °F 39.0 °F 28.4 °F 61% 30.45 in 10.0 mi West 3.5 mph - N/A   Clear
6:15 PM 37.4 °F - 30.2 °F 75% 30.44 in 10.0 mi Calm Calm - N/A   Clear
6:35 PM 35.6 °F - 30.2 °F 81% 30.45 in 10.0 mi Calm Calm - N/A   Clear
6:55 PM 33.8 °F - 32.0 °F 93% 30.45 in 10.0 mi Calm Calm - N/A   Clear
7:15 PM 33.8 °F - 32.0 °F 93% 30.45 in 10.0 mi Calm Calm - N/A   Clear
7:35 PM 33.8 °F - 30.2 °F 87% 30.45 in 10.0 mi Calm Calm - N/A   Clear
7:55 PM 32.0 °F - 30.2 °F 93% 30.45 in 10.0 mi Calm Calm - N/A   Clear
8:15 PM 32.0 °F - 28.4 °F 87% 30.46 in 10.0 mi Calm Calm - N/A   Clear
8:35 PM 32.0 °F - 28.4 °F 87% 30.46 in 10.0 mi Calm Calm - N/A   Clear
8:55 PM 32.0 °F - 28.4 °F 87% 30.46 in 10.0 mi Calm Calm - N/A   Clear
9:15 PM 30.2 °F - 28.4 °F 93% 30.46 in 10.0 mi Calm Calm - N/A   Clear
9:35 PM 30.2 °F - 28.4 °F 93% 30.47 in 10.0 mi Calm Calm - N/A   Clear
9:55 PM 30.2 °F - 28.4 °F 93% 30.47 in 10.0 mi Calm Calm - N/A   Clear
10:15 PM 32.0 °F - 28.4 °F 87% 30.48 in 10.0 mi Calm Calm - N/A   Clear
10:35 PM 32.0 °F - 28.4 °F 87% 30.48 in 10.0 mi Calm Calm - N/A   Clear
10:55 PM 30.2 °F - 28.4 °F 93% 30.48 in 10.0 mi Calm Calm - N/A   Clear
11:15 PM 32.0 °F - 30.2 °F 93% 30.48 in 10.0 mi Calm Calm - N/A   Clear
11:35 PM 32.0 °F - 30.2 °F 93% 30.49 in 10.0 mi Calm Calm - N/A   Clear
11:55 PM 32.0 °F - 30.2 °F 93% 30.49 in 10.0 mi Calm Calm - N/A   Clear